User: anonymous   Login
Location: Unspecified
(0.0000°N, 0.0000°E)
Time: 09:31:12
(UTC+00:00)
Language:

NOAA 2 - Orbit

View from above orbital plane
View from above orbital plane
View from above satellite
View from above satellite

Ground track
Ground track

The orbit data is extracted from the following two-line orbital elements,

1  6235U 72082A   17295.90053661 -.00000040 +00000-0 +29400-4 0  9993
2  6235 101.7001 258.9869 0004248 096.4465 324.8391 12.53098681059217
Epoch (UTC): 22 October 2017 21:36:46
Eccentricity: 0.0004248
inclination: 101.7001°
perigee height: 1448 km
apogee height: 1455 km
right ascension of ascending node: 258.9869°
argument of perigee: 96.4465°
revolutions per day: 12.53098681
mean anomaly at epoch: 324.8391°
orbit number at epoch: 5921

The dashed part of the orbit path shows where the satellite is in the earth's shadow,  

DLR